Regional Weather Roundup
Issued by NWS

Home | Current Version | Previous Version | Text Only | Print | Product List | Glossary On
Versions: 1 2 3 4 5 6 7 8 9 10 11 12 13 14 15 16 17 18 19 20 21 22 23 24 25 26 27 28 29 30 31 32 33 34 35 36 37 38 39 40 41 42 43 44 45 46 47 48 49 50
000
ASUS43 KLSX 301610
RWRMO

WEATHER SUMMARY FOR MISSOURI
NATIONAL WEATHER SERVICE SPRINGFIELD MO
1100 AM CDT THU MAR 30 2017

NOTE: "FAIR" INDICATES FEW OR NO CLOUDS BELOW 12,000 FEET WITH NO
       SIGNIFICANT WEATHER AND/OR OBSTRUCTIONS TO VISIBILITY.
       CURRENT SKY AND/OR WEATHER CONDITIONS ARE NOT AVAILABLE FOR
       CHILLICOTHE AND FARMINGTON.

MOZ001>031-035>038-043-044-053-054-301700-
...NORTHERN AND WESTERN MISSOURI...

CITY           SKY/WX    TMP DP  RH WIND       PRES   REMARKS
KANSAS CTY INT CLOUDY    50  46  86 N6        29.58R
KANSAS C DTWN  CLOUDY    50  47  89 CALM      29.57F
LEE`S SUMMIT   CLOUDY    49  48  97 S6        29.58S FOG
ST JOSEPH      CLOUDY    47  46  97 N13       29.61R
CHILLICOTHE      N/A     50  49  96 N5        29.59R
KIRKSVILLE     FOG       50  49  96 NE8       29.59R VSB 3/4

$$
MOZ066>068-077>081-088>096-101>105-301700-
...SOUTHWEST MISSOURI...

CITY           SKY/WX    TMP DP  RH WIND       PRES   REMARKS
SPRINGFIELD    CLOUDY    50  41  71 SW18      29.60S
JOPLIN         LGT RAIN  47  46  97 SW17G23   29.62R FOG
BRANSON        CLOUDY    48  39  71 SW12G18   29.66R

$$
MOZ032>034-039>042-045>050-055>058-069>072-301700-
...CENTRAL MISSOURI...

CITY           SKY/WX    TMP DP  RH WIND       PRES   REMARKS
COLUMBIA       LGT RAIN  50  47  89 SW14      29.59R
JEFFERSON CITY LGT RAIN  53  46  77 W8        29.60R
ROLLA          CLOUDY    51  50  96 W13       29.58R
SEDALIA        CLOUDY    50  44  80 SW14      29.60R
WHITEMAN AFB   CLOUDY    50  50 100 SW12      29.57S
WARRENSBURG    CLOUDY    48  45  87 S10       29.59S
OSAGE BEACH    CLOUDY    52  44  74 SW10      29.61R

$$
MOZ051-052-059>065-301700-
...EAST CENTRAL MISSOURI...

CITY           SKY/WX    TMP DP  RH WIND       PRES   REMARKS
ST LOUIS INTL  MOSUNNY   70  60  70 S12       29.54F
SPIRIT OF STL  PTSUNNY   68  61  78 S9        29.52F
ST CHARLES     MOSUNNY   67  62  84 S6        29.53F

$$
MOZ072>076-082>087-097>100-106>115-301700-
...SOUTH CENTRAL AND SOUTHEAST MISSOURI...

CITY           SKY/WX    TMP DP  RH WIND       PRES   REMARKS
CAPE GIRARDEAU CLOUDY    67  59  75 S20G33    29.61S
FARMINGTON     LGT RAIN  66  58  75 S17G28    29.56F
POPLAR BLUFF   PTSUNNY   69  61  75 S25G32    29.58F
WEST PLAINS    CLOUDY    53  48  83 W13       29.62R

$$



USA.gov is the U.S. government's official web portal to all federal, state and local government web resources and services.